Location: Unspecified
(37.5694°N, 0.0000°E)
Time: 03:07:10
(UTC+00:00)

POSAT 1 - Visible Passes

Search period start: 04 April 2026 00:00
Search period end: 14 April 2026 00:00
Orbit: 779 x 792 km, 98.7° (Epoch: 29 March)

Date Brightness Start Highest point End Pass type
(mag) Time Alt. Az. Time Alt. Az. Time Alt. Az.
4 Apr 10.0 20:35:00 24° NE 20:35:00 24° NE 20:38:03 10° N visible
4 Apr 10.8 22:15:37 21° NW 22:15:37 21° NW 22:17:36 10° NNW visible
5 Apr 10.4 20:03:38 14° NE 20:03:38 14° NE 20:05:54 10° NNE visible
5 Apr 10.1 21:44:16 33° NNW 21:44:16 33° NNW 21:47:07 10° NNW visible
6 Apr 9.6 21:12:53 39° N 21:12:53 39° N 21:16:13 10° N visible
6 Apr 11.5 22:53:30 10° WNW 22:53:30 10° WNW 22:53:34 10° WNW visible
7 Apr 9.8 20:41:31 28° NE 20:41:31 28° NE 20:44:55 10° N visible
7 Apr 10.8 22:22:08 20° NW 22:22:08 20° NW 22:24:10 10° NW visible
8 Apr 10.3 20:10:09 17° ENE 20:10:09 17° ENE 20:13:00 10° NNE visible
8 Apr 10.0 21:50:46 34° NW 21:50:46 34° NW 21:53:48 10° NNW visible
9 Apr 9.4 21:19:24 44° N 21:19:24 44° N 21:22:58 10° N visible
10 Apr 9.6 20:48:02 33° NE 20:48:02 33° NE 20:51:45 10° N visible
10 Apr 10.9 22:28:39 19° WNW 22:28:39 19° WNW 22:30:40 10° NW visible
11 Apr 10.1 20:16:41 19° ENE 20:16:41 19° ENE 20:20:01 10° NNE visible
11 Apr 10.0 21:57:17 34° NW 21:57:17 34° NW 22:00:27 10° NNW visible
12 Apr 9.3 21:25:56 49° N 21:25:56 49° N 21:29:43 10° N visible
13 Apr 9.3 20:54:34 38° NE 20:54:34 38° NE 20:58:35 10° N visible
13 Apr 10.9 22:35:11 18° WNW 22:35:11 18° WNW 22:37:09 10° NW visible
